Weather History for Moses Lake, WA

Change the Weather History Date:

Wednesday, August 15, 2012

  Actual Average Record
Temperature  
Mean Temperature 81 °F 72 °F  
Max Temperature 93 °F 89 °F 103 °F (2008)
Min Temperature 68 °F 56 °F 43 °F (1982)
Degree Days  
Heating Degree Days 0 0  
Month to date heating degree days 0 0  
Since 1 June heating degree days 92 63  
Since 1 July heating degree days 6 8  
Cooling Degree Days 16 7  
Month to date cooling degree days 190 127  
Year to date cooling degree days 582 481  
Since 1 June cooling degree days 555 456  
Growing Degree Days 32 (Base 50)    
Moisture  
Dew Point 42 °F    
Average Humidity 27    
Maximum Humidity 39    
Minimum Humidity 14    
Precipitation  
Precipitation 0.00 in 0.01 in 0.34 in (2014)
Month to date precipitation 0.00 0.12  
Year to date precipitation 5.58 5.30  
Sea Level Pressure  
Sea Level Pressure 29.91 in    
Wind  
Wind Speed 12 mph (NNE)    
Max Wind Speed 24 mph    
Max Gust Speed 30 mph    
Visibility 10 miles    
Events      
T = Trace of Precipitation, MM = Missing Value Source: NWS Daily Summary

Daily Weather History Graph

Daily Weather History Graph

Search for Another Location

Airport:

Trip Planner

Search our weather history database for the weather conditions in past years. The results will help you decide how hot, cold, wet, or windy it might be!

Date:

Astronomy

Aug. 15, 2012 Rise Set
Actual Time 5:54 AM PDT 8:07 PM PDT
Civil Twilight 5:21 AM PDT 8:40 PM PDT
Nautical Twilight 4:39 AM PDT 9:22 PM PDT
Astronomical Twilight 3:52 AM PDT 10:08 PM PDT
Moon 3:52 AM PDT (8/15) 6:45 PM PDT (8/15)
Length of Visible Light 15h 19m
Length of Day
14h 12m
Waning Crescent, 4% of the Moon is Illuminated
Aug 15
Waning Crescent
Aug 17
New
Aug 24
First Quarter
Aug 31
Full
Sep 8
Last Quarter

Hourly Weather History & Observations

Time (PDT) Temp. Dew Point Humidity Pressure Visibility Wind Dir Wind Speed Gust Speed Precip Events Conditions
12:52 AM 75.9 °F 46.0 °F 35% 29.81 in 10.0 mi North 13.8 mph - N/A   Clear
1:52 AM 75.0 °F 44.1 °F 33% 29.83 in 10.0 mi North 15.0 mph - N/A   Clear
2:52 AM 73.0 °F 43.0 °F 34% 29.85 in 10.0 mi North 17.3 mph - N/A   Partly Cloudy
3:52 AM 72.0 °F 43.0 °F 35% 29.86 in 10.0 mi North 16.1 mph - N/A   Clear
4:52 AM 71.1 °F 42.1 °F 35% 29.88 in 10.0 mi North 15.0 mph - N/A   Clear
5:52 AM 70.0 °F 42.1 °F 36% 29.90 in 10.0 mi North 15.0 mph - N/A   Clear
6:52 AM 70.0 °F 43.0 °F 38% 29.93 in 10.0 mi North 16.1 mph 24.2 mph N/A   Clear
7:52 AM 73.9 °F 45.0 °F 35% 29.95 in 10.0 mi North 16.1 mph 24.2 mph N/A   Clear
8:52 AM 78.1 °F 45.0 °F 31% 29.96 in 10.0 mi North 20.7 mph 27.6 mph N/A   Clear
9:52 AM 82.9 °F 43.0 °F 24% 29.96 in 10.0 mi NNE 17.3 mph - N/A   Clear
10:52 AM 84.9 °F 43.0 °F 23% 29.96 in 10.0 mi NNE 20.7 mph - N/A   Clear
11:52 AM 87.1 °F 41.0 °F 20% 29.96 in 10.0 mi ENE 15.0 mph - N/A   Clear
12:52 PM 88.0 °F 41.0 °F 19% 29.96 in 10.0 mi NE 10.4 mph 20.7 mph N/A   Clear
1:52 PM 90.0 °F 41.0 °F 18% 29.94 in 10.0 mi Variable 3.5 mph - N/A   Clear
2:52 PM 91.0 °F 39.9 °F 17% 29.93 in 10.0 mi Variable 5.8 mph 16.1 mph N/A   Clear
3:52 PM 93.0 °F 39.0 °F 15% 29.91 in 10.0 mi NNE 8.1 mph - N/A   Clear
4:52 PM 93.0 °F 37.9 °F 15% 29.90 in 10.0 mi NE 9.2 mph - N/A   Clear
5:52 PM 91.0 °F 37.0 °F 15% 29.89 in 10.0 mi NNE 11.5 mph - N/A   Clear
6:52 PM 89.1 °F 39.0 °F 17% 29.88 in 10.0 mi NE 9.2 mph - N/A   Clear
7:52 PM 82.4 °F 41.0 °F 23% 29.92 in 10.0 mi NE 8.1 mph - N/A   Clear
8:52 PM 79.0 °F 43.0 °F 28% 29.91 in 10.0 mi East 10.4 mph - N/A   Clear
9:52 PM 75.0 °F 44.1 °F 33% 29.93 in 10.0 mi East 10.4 mph - N/A   Clear
10:52 PM 71.6 °F 44.6 °F 38% 29.97 in 10.0 mi ENE 11.5 mph - N/A   Clear
11:52 PM 68.0 °F 43.0 °F 40% 29.95 in 10.0 mi NNE 4.6 mph - N/A   Clear